CZ-6A DEB, 54432

Orbit data source: Space-Track

CZ-6A DEB, 54432 is space debris in SSO originally from a launch on Fri, 11 Nov 2022 UTC launched from the Taiyaun Space Center, China (TSC). Debris objects in space refer to the collection of defunct objects orbiting the Earth. Examples of debris include non-operational satellites, rocket bodies, and fragments generated from explosions, collisions, or faulty payload assembly.

Loading next visibility...
Identifier
54432, 2022-151FG
Orbit
SSO
Country
Flag of CNCN / PRC
Related business
Manufacturer
SAST
Mission
Spacecraft
Bus & Motor
Unknown
Mass
Unknown
Launch date (UTC)
2022-11-11 (4 years ago)
Launch vehicle
Unknown
Launch site
Taiyaun Space Center, China (TSC)
Object type
Payload
Rocket body
Debris
Shape & HBR
Unknown shape, 0.1 m
Radar Cross Section
Medium (>0.1 m² and <1 m²)

Expand to show TLE details & history
Last TLE update: 2 days ago

TLE from 2 days ago
0 CZ-6A DEB
1 54432U 22151FG  26171.42530338  .00003332  00000-0  17118-2 0  9995
2 54432  98.9929 175.9007 0169244 339.6759  19.7728 14.08887737184003
Epoch: 2026-06-20T10:12Z
TLE epoch observation values (Epoch: 2026-06-20T10:12:26.212Z)
Latitude
-0°
Longitude
114.15137°
Altitude
750.963 km
Speed
7.538 km/s
True Right ascension
11h 43m 36s
True Declination
0° 00' 00"
Sunlit
Object was in daylight at epoch
Visualization orbit readout
Latitude
Unknown
Longitude
Unknown
Altitude
Unknown
Speed
Unknown
Apparent Right ascension
Unknown
Apparent Declination
Unknown
Sunlit
N/A
Visualization observer readout
Local Sidereal Time
21:54:26
Azimuth
Unknown
Elevation
Unknown
Doppler factor
Unknown
Orbital elements
Apogee altitude
982.874 km
Perigee altitude
737.859 km
Semi-major axis
7,238.503 km
Eccentricity
0.01692
Inclination
98.9929°
RAAN
175.9007°
Arg. of periapsis
339.6759°
True anomaly
20.44218°
Mean anomaly
19.7728°
Eccentric anomaly
20.10614°
Mean motion
3.52428 °/min
Orbital period
102.15 mins
BSTAR
0.0017118
Loading maneuver chart data...
Computing Atmospheric mass density...
Loading historical data...
Loading historical data...
Loading historical data...
Loading historical data...
Loading historical data...
Loading historical data...
Loading historical data...

Documentation

Showing up to 5 results
|